Time,TemperatureF,DewpointF,PressureIn,WindDirection,WindDirectionDegrees,WindSpeedMPH,WindSpeedGustMPH,Humidity,HourlyPrecipIn,Conditions,Clouds,dailyrainin,SoftwareType,DateUTC
2013-04-14 00:09:00,49.5,18.5,29.51,NNW,337,9.0,9.0,29,0.00,,,0.00,Wunderground v.1.15,2013-04-14 06:09:00,
2013-04-14 00:14:00,49.4,19.2,29.50,NW,304,8.0,9.0,30,0.00,,,0.00,Wunderground v.1.15,2013-04-14 06:14:00,
2013-04-14 00:19:00,49.2,19.0,29.50,NNW,329,8.0,11.0,30,0.00,,,0.00,Wunderground v.1.15,2013-04-14 06:19:00,
2013-04-14 00:24:00,49.2,19.0,29.50,NW,325,8.0,11.0,30,0.00,,,0.00,Wunderground v.1.15,2013-04-14 06:24:00,
2013-04-14 00:29:00,49.1,19.7,29.49,NW,326,10.0,10.0,31,0.00,,,0.00,Wunderground v.1.15,2013-04-14 06:29:00,
2013-04-14 00:39:00,49.0,19.6,29.49,NNW,334,11.0,11.0,31,0.00,,,0.00,Wunderground v.1.15,2013-04-14 06:39:00,
2013-04-14 00:49:00,48.8,20.2,29.49,NE,38,12.0,13.0,32,0.00,,,0.00,Wunderground v.1.15,2013-04-14 06:49:00,
2013-04-14 00:54:00,48.7,20.1,29.49,NNW,331,11.0,13.0,32,0.00,,,0.00,Wunderground v.1.15,2013-04-14 06:54:00,
2013-04-14 01:00:00,48.4,19.9,29.48,NNW,336,10.0,18.0,32,0.00,,,0.00,Wunderground v.1.15,2013-04-14 07:00:00,
2013-04-14 01:09:00,48.0,20.9,29.48,NNE,19,10.0,10.0,34,0.00,,,0.00,Wunderground v.1.15,2013-04-14 07:09:00,
2013-04-14 01:14:00,47.9,20.8,29.46,NW,326,10.0,12.0,34,0.00,,,0.00,Wunderground v.1.15,2013-04-14 07:14:00,
2013-04-14 01:24:00,47.7,20.7,29.46,NW,324,12.0,12.0,34,0.00,,,0.00,Wunderground v.1.15,2013-04-14 07:24:00,
2013-04-14 01:29:00,47.6,20.6,29.44,NW,319,12.0,12.0,34,0.00,,,0.00,Wunderground v.1.15,2013-04-14 07:29:00,
2013-04-14 01:39:00,47.6,20.6,29.44,NW,308,12.0,12.0,34,0.00,,,0.00,Wunderground v.1.15,2013-04-14 07:39:00,
2013-04-14 01:44:00,47.6,20.6,29.44,NNW,336,13.0,13.0,34,0.00,,,0.00,Wunderground v.1.15,2013-04-14 07:44:00,
2013-04-14 01:49:00,47.4,20.4,29.44,NNW,332,13.0,13.0,34,0.00,,,0.00,Wunderground v.1.15,2013-04-14 07:49:00,
2013-04-14 01:59:00,47.3,21.0,29.44,NW,321,13.0,13.0,35,0.00,,,0.00,Wunderground v.1.15,2013-04-14 07:59:00,
2013-04-14 02:09:00,47.2,20.9,29.43,NNW,338,12.0,12.0,35,0.00,,,0.00,Wunderground v.1.15,2013-04-14 08:09:00,
2013-04-14 02:14:00,47.2,20.9,29.43,NNW,327,11.0,12.0,35,0.00,,,0.00,Wunderground v.1.15,2013-04-14 08:14:00,
2013-04-14 02:19:00,47.1,20.8,29.44,NNW,330,10.0,12.0,35,0.00,,,0.00,Wunderground v.1.15,2013-04-14 08:19:00,
2013-04-14 02:24:00,46.9,21.3,29.43,NW,308,9.0,12.0,36,0.00,,,0.00,Wunderground v.1.15,2013-04-14 08:24:00,
2013-04-14 02:29:00,46.7,21.8,29.43,NNW,331,7.0,7.0,37,0.00,,,0.00,Wunderground v.1.15,2013-04-14 08:29:00,
2013-04-14 02:39:00,46.4,20.9,29.43,NNE,15,7.0,7.0,36,0.00,,,0.00,Wunderground v.1.15,2013-04-14 08:39:00,
2013-04-14 02:44:00,46.1,21.2,29.45,North,351,6.0,7.0,37,0.00,,,0.00,Wunderground v.1.15,2013-04-14 08:44:00,
2013-04-14 02:49:00,46.0,21.1,29.43,NNE,12,5.0,5.0,37,0.00,,,0.00,Wunderground v.1.15,2013-04-14 08:49:00,
2013-04-14 02:54:00,45.8,21.6,29.44,NNW,348,4.0,7.0,38,0.00,,,0.00,Wunderground v.1.15,2013-04-14 08:54:00,
2013-04-14 02:59:00,45.8,21.6,29.43,North,355,4.0,4.0,38,0.00,,,0.00,Wunderground v.1.15,2013-04-14 08:59:00,
2013-04-14 03:09:00,45.8,21.6,29.44,NNW,331,8.0,10.0,38,0.00,,,0.00,Wunderground v.1.15,2013-04-14 09:09:00,
2013-04-14 03:14:00,45.7,21.5,29.44,NE,34,7.0,10.0,38,0.00,,,0.00,Wunderground v.1.15,2013-04-14 09:14:00,
2013-04-14 03:19:00,45.5,21.9,29.43,NNE,18,5.0,5.0,39,0.00,,,0.00,Wunderground v.1.15,2013-04-14 09:19:00,
2013-04-14 03:24:00,45.4,21.9,29.43,ENE,59,5.0,5.0,39,0.00,,,0.00,Wunderground v.1.15,2013-04-14 09:24:00,
2013-04-14 03:29:00,45.3,21.8,29.42,WNW,288,6.0,6.0,39,0.00,,,0.00,Wunderground v.1.15,2013-04-14 09:29:00,
2013-04-14 03:39:00,45.0,21.5,29.42,NW,321,5.0,7.0,39,0.00,,,0.00,Wunderground v.1.15,2013-04-14 09:39:00,
2013-04-14 03:49:00,44.7,21.8,29.42,NW,317,4.0,4.0,40,0.00,,,0.00,Wunderground v.1.15,2013-04-14 09:49:00,
2013-04-14 03:54:00,44.6,21.7,29.42,NNW,338,4.0,11.0,40,0.00,,,0.00,Wunderground v.1.15,2013-04-14 09:54:00,
2013-04-14 03:59:00,44.6,21.7,29.42,NNW,346,5.0,5.0,40,0.00,,,0.00,Wunderground v.1.15,2013-04-14 09:59:00,
2013-04-14 04:09:00,44.3,21.5,29.42,NNW,329,4.0,4.0,40,0.00,,,0.00,Wunderground v.1.15,2013-04-14 10:09:00,
2013-04-14 04:14:00,44.2,21.4,29.42,NNW,342,3.0,4.0,40,0.00,,,0.00,Wunderground v.1.15,2013-04-14 10:14:00,
2013-04-14 04:19:00,44.2,21.4,29.42,NW,308,5.0,5.0,40,0.00,,,0.00,Wunderground v.1.15,2013-04-14 10:19:00,
2013-04-14 04:29:00,44.3,21.5,29.42,NW,321,4.0,5.0,40,0.00,,,0.00,Wunderground v.1.15,2013-04-14 10:29:00,
2013-04-14 04:34:00,44.2,21.4,29.42,NNE,30,4.0,5.0,40,0.00,,,0.00,Wunderground v.1.15,2013-04-14 10:34:00,
2013-04-14 04:44:00,44.4,21.0,29.42,NNW,342,3.0,9.0,39,0.00,,,0.00,Wunderground v.1.15,2013-04-14 10:44:00,
2013-04-14 04:49:00,44.3,20.9,29.43,NW,324,4.0,4.0,39,0.00,,,0.00,Wunderground v.1.15,2013-04-14 10:49:00,
2013-04-14 04:54:00,44.3,21.5,29.43,North,360,4.0,4.0,40,0.00,,,0.00,Wunderground v.1.15,2013-04-14 10:54:00,
2013-04-14 04:59:00,44.3,21.5,29.42,NNW,336,3.0,4.0,40,0.00,,,0.00,Wunderground v.1.15,2013-04-14 10:59:00,
2013-04-14 05:09:00,44.0,20.6,29.42,NNW,331,3.0,3.0,39,0.00,,,0.00,Wunderground v.1.15,2013-04-14 11:09:00,
2013-04-14 05:14:00,43.8,21.0,29.41,NNW,344,2.0,6.0,40,0.00,,,0.00,Wunderground v.1.15,2013-04-14 11:14:00,
2013-04-14 05:24:00,43.6,21.4,29.41,North,355,3.0,4.0,41,0.00,,,0.00,Wunderground v.1.15,2013-04-14 11:24:00,
2013-04-14 05:29:00,43.4,21.2,29.41,WNW,302,3.0,4.0,41,0.00,,,0.00,Wunderground v.1.15,2013-04-14 11:29:00,
2013-04-14 05:34:00,43.3,21.1,29.40,WNW,296,3.0,4.0,41,0.00,,,0.00,Wunderground v.1.15,2013-04-14 11:34:00,
2013-04-14 05:39:00,43.2,21.1,29.41,NW,325,3.0,6.0,41,0.00,,,0.00,Wunderground v.1.15,2013-04-14 11:39:00,
2013-04-14 05:44:00,43.2,21.1,29.41,NNW,338,3.0,9.0,41,0.00,,,0.00,Wunderground v.1.15,2013-04-14 11:44:00,
2013-04-14 05:54:00,43.3,21.1,29.40,NW,317,5.0,8.0,41,0.00,,,0.00,Wunderground v.1.15,2013-04-14 11:54:00,
2013-04-14 05:59:00,43.4,21.2,29.40,NW,307,4.0,4.0,41,0.00,,,0.00,Wunderground v.1.15,2013-04-14 11:59:00,
2013-04-14 06:09:00,43.3,21.1,29.41,NNW,331,4.0,5.0,41,0.00,,,0.00,Wunderground v.1.15,2013-04-14 12:09:00,
2013-04-14 06:19:00,43.4,21.2,29.41,NNW,329,6.0,9.0,41,0.00,,,0.00,Wunderground v.1.15,2013-04-14 12:19:00,
2013-04-14 06:24:00,43.6,20.8,29.40,NW,320,6.0,9.0,40,0.00,,,0.00,Wunderground v.1.15,2013-04-14 12:24:00,
2013-04-14 06:29:00,43.4,20.7,29.41,North,355,5.0,5.0,40,0.00,,,0.00,Wunderground v.1.15,2013-04-14 12:29:00,
2013-04-14 06:39:00,43.4,21.2,29.41,NNW,327,4.0,6.0,41,0.00,,,0.00,Wunderground v.1.15,2013-04-14 12:39:00,
2013-04-14 06:44:00,43.6,20.8,29.40,NW,319,6.0,6.0,40,0.00,,,0.00,Wunderground v.1.15,2013-04-14 12:44:00,
2013-04-14 06:54:00,43.7,20.9,29.41,NNW,338,6.0,9.0,40,0.00,,,0.00,Wunderground v.1.15,2013-04-14 12:54:00,
2013-04-14 06:59:00,43.7,21.5,29.40,NW,313,6.0,6.0,41,0.00,,,0.00,Wunderground v.1.15,2013-04-14 12:59:00,
2013-04-14 07:09:00,43.8,21.6,29.41,NNW,331,3.0,3.0,41,0.00,,,0.00,Wunderground v.1.15,2013-04-14 13:09:00,
2013-04-14 07:14:00,43.8,21.6,29.41,NW,323,3.0,6.0,41,0.00,,,0.00,Wunderground v.1.15,2013-04-14 13:14:00,
2013-04-14 07:24:00,43.7,22.1,29.41,WNW,300,2.0,4.0,42,0.00,,,0.00,Wunderground v.1.15,2013-04-14 13:24:00,
2013-04-14 07:29:00,43.6,22.0,29.42,NNW,331,1.0,6.0,42,0.00,,,0.00,Wunderground v.1.15,2013-04-14 13:29:00,
2013-04-14 07:34:00,43.6,22.0,29.42,NNW,338,3.0,6.0,42,0.00,,,0.00,Wunderground v.1.15,2013-04-14 13:34:00,
2013-04-14 07:39:00,43.6,22.0,29.41,NW,318,4.0,6.0,42,0.00,,,0.00,Wunderground v.1.15,2013-04-14 13:39:00,
2013-04-14 07:44:00,43.7,22.1,29.41,NW,309,5.0,15.0,42,0.00,,,0.00,Wunderground v.1.15,2013-04-14 13:44:00,
2013-04-14 07:54:00,43.8,22.2,29.41,NW,316,4.0,5.0,42,0.00,,,0.00,Wunderground v.1.15,2013-04-14 13:54:00,
2013-04-14 07:59:00,43.9,22.3,29.41,NNW,331,6.0,12.0,42,0.00,,,0.00,Wunderground v.1.15,2013-04-14 13:59:00,
2013-04-14 08:09:00,44.0,22.4,29.42,WNW,283,5.0,5.0,42,0.00,,,0.00,Wunderground v.1.15,2013-04-14 14:09:00,
2013-04-14 08:14:00,43.9,22.3,29.42,North,5,5.0,6.0,42,0.00,,,0.00,Wunderground v.1.15,2013-04-14 14:14:00,
2013-04-14 08:19:00,43.7,22.6,29.41,NE,52,5.0,5.0,43,0.00,,,0.00,Wunderground v.1.15,2013-04-14 14:19:00,
2013-04-14 08:24:00,43.5,22.5,29.42,NE,40,3.0,7.0,43,0.00,,,0.00,Wunderground v.1.15,2013-04-14 14:24:00,
2013-04-14 08:29:00,43.7,22.6,29.41,North,5,5.0,11.0,43,0.00,,,0.00,Wunderground v.1.15,2013-04-14 14:29:00,
2013-04-14 08:39:00,44.7,23.0,29.41,NW,319,7.0,7.0,42,0.00,,,0.00,Wunderground v.1.15,2013-04-14 14:39:00,
2013-04-14 08:44:00,45.4,23.0,29.40,NW,315,7.0,7.0,41,0.00,,,0.00,Wunderground v.1.15,2013-04-14 14:44:00,
2013-04-14 08:49:00,45.7,23.3,29.40,North,351,10.0,10.0,41,0.00,,,0.00,Wunderground v.1.15,2013-04-14 14:49:00,
2013-04-14 08:54:00,45.9,23.5,29.40,NW,324,10.0,16.0,41,0.00,,,0.00,Wunderground v.1.15,2013-04-14 14:54:00,
2013-04-14 08:59:00,46.2,23.8,29.39,NW,315,10.0,23.0,41,0.00,,,0.00,Wunderground v.1.15,2013-04-14 14:59:00,
2013-04-14 09:09:00,46.7,23.6,29.39,NNW,329,12.0,12.0,40,0.00,,,0.00,Wunderground v.1.15,2013-04-14 15:09:00,
2013-04-14 09:19:00,46.5,23.4,29.39,NNE,26,12.0,12.0,40,0.00,,,0.00,Wunderground v.1.15,2013-04-14 15:19:00,
2013-04-14 09:24:00,46.4,23.9,29.40,NNW,340,11.0,21.0,41,0.00,,,0.00,Wunderground v.1.15,2013-04-14 15:24:00,
2013-04-14 09:34:00,47.1,24.0,29.38,NNW,342,12.0,13.0,40,0.00,,,0.00,Wunderground v.1.15,2013-04-14 15:34:00,
2013-04-14 09:39:00,47.3,24.2,29.38,NNE,22,12.0,12.0,40,0.00,,,0.00,Wunderground v.1.15,2013-04-14 15:39:00,
2013-04-14 09:44:00,47.5,24.3,29.38,NW,309,11.0,18.0,40,0.00,,,0.00,Wunderground v.1.15,2013-04-14 15:44:00,
2013-04-14 09:54:00,47.8,24.0,29.38,NW,325,11.0,20.0,39,0.00,,,0.00,Wunderground v.1.15,2013-04-14 15:54:00,
2013-04-14 09:59:00,48.1,24.3,29.39,NW,306,12.0,12.0,39,0.00,,,0.00,Wunderground v.1.15,2013-04-14 15:59:00,
2013-04-14 10:09:00,48.7,24.2,29.39,North,355,11.0,11.0,38,0.00,,,0.00,Wunderground v.1.15,2013-04-14 16:09:00,
2013-04-14 10:14:00,48.5,24.6,29.38,WNW,301,11.0,19.0,39,0.00,,,0.00,Wunderground v.1.15,2013-04-14 16:14:00,
2013-04-14 10:19:00,48.5,24.6,29.39,North,349,12.0,14.0,39,0.00,,,0.00,Wunderground v.1.15,2013-04-14 16:19:00,
2013-04-14 10:29:00,49.3,24.7,29.39,NW,325,10.0,15.0,38,0.00,,,0.00,Wunderground v.1.15,2013-04-14 16:29:00,
2013-04-14 10:39:00,49.1,24.6,29.40,NNW,331,10.0,17.0,38,0.00,,,0.00,Wunderground v.1.15,2013-04-14 16:39:00,
2013-04-14 10:44:00,48.7,24.8,29.39,NW,321,10.0,17.0,39,0.00,,,0.00,Wunderground v.1.15,2013-04-14 16:44:00,
2013-04-14 10:49:00,49.2,24.6,29.40,NNW,343,11.0,11.0,38,0.00,,,0.00,Wunderground v.1.15,2013-04-14 16:49:00,
2013-04-14 10:54:00,49.2,24.6,29.40,North,360,13.0,13.0,38,0.00,,,0.00,Wunderground v.1.15,2013-04-14 16:54:00,
2013-04-14 10:59:00,49.1,24.6,29.40,North,355,12.0,12.0,38,0.00,,,0.00,Wunderground v.1.15,2013-04-14 16:59:00,
2013-04-14 11:09:00,49.2,24.0,29.40,NW,323,14.0,14.0,37,0.00,,,0.00,Wunderground v.1.15,2013-04-14 17:09:00,
2013-04-14 11:19:00,49.4,24.8,29.40,NNW,327,12.0,18.0,38,0.00,,,0.00,Wunderground v.1.15,2013-04-14 17:19:00,
2013-04-14 11:24:00,49.3,24.7,29.40,NNE,32,11.0,18.0,38,0.00,,,0.00,Wunderground v.1.15,2013-04-14 17:24:00,
2013-04-14 11:34:00,50.0,24.7,29.40,NNW,331,11.0,17.0,37,0.00,,,0.00,Wunderground v.1.15,2013-04-14 17:34:00,
2013-04-14 11:44:00,51.5,24.7,29.41,NNW,336,15.0,17.0,35,0.00,,,0.00,Wunderground v.1.15,2013-04-14 17:44:00,
2013-04-14 11:49:00,51.4,23.9,29.40,NNW,344,13.0,13.0,34,0.00,,,0.00,Wunderground v.1.15,2013-04-14 17:49:00,
2013-04-14 11:59:00,50.8,24.1,29.41,NNW,340,13.0,15.0,35,0.00,,,0.00,Wunderground v.1.15,2013-04-14 17:59:00,
2013-04-14 12:09:00,51.9,25.1,29.41,North,5,11.0,13.0,35,0.00,,,0.00,Wunderground v.1.15,2013-04-14 18:09:00,
2013-04-14 12:14:00,51.9,23.7,29.41,NW,318,13.0,13.0,33,0.00,,,0.00,Wunderground v.1.15,2013-04-14 18:14:00,
2013-04-14 12:19:00,51.2,24.5,29.41,North,355,15.0,15.0,35,0.00,,,0.00,Wunderground v.1.15,2013-04-14 18:19:00,
2013-04-14 12:24:00,51.4,24.6,29.41,NNW,338,12.0,20.0,35,0.00,,,0.00,Wunderground v.1.15,2013-04-14 18:24:00,
2013-04-14 12:29:00,51.5,24.0,29.41,NW,312,12.0,12.0,34,0.00,,,0.00,Wunderground v.1.15,2013-04-14 18:29:00,
2013-04-14 12:39:00,51.3,23.8,29.42,NW,323,9.0,9.0,34,0.00,,,0.00,Wunderground v.1.15,2013-04-14 18:39:00,
2013-04-14 12:44:00,51.4,23.9,29.42,NNE,13,10.0,10.0,34,0.00,,,0.00,Wunderground v.1.15,2013-04-14 18:44:00,
2013-04-14 12:49:00,51.1,23.7,29.42,NW,323,13.0,22.0,34,0.00,,,0.00,Wunderground v.1.15,2013-04-14 18:49:00,
2013-04-14 12:54:00,51.5,24.0,29.42,NNW,329,14.0,22.0,34,0.00,,,0.00,Wunderground v.1.15,2013-04-14 18:54:00,
2013-04-14 12:59:00,52.5,24.9,29.41,NW,305,11.0,11.0,34,0.00,,,0.00,Wunderground v.1.15,2013-04-14 18:59:00,
2013-04-14 13:09:00,52.7,23.6,29.41,NNE,12,9.0,9.0,32,0.00,,,0.00,Wunderground v.1.15,2013-04-14 19:09:00,
2013-04-14 13:14:00,52.8,23.7,29.42,NNW,344,11.0,11.0,32,0.00,,,0.00,Wunderground v.1.15,2013-04-14 19:14:00,
2013-04-14 13:19:00,52.4,23.4,29.41,NNW,327,12.0,12.0,32,0.00,,,0.00,Wunderground v.1.15,2013-04-14 19:19:00,
2013-04-14 13:24:00,52.4,23.4,29.40,WNW,300,11.0,12.0,32,0.00,,,0.00,Wunderground v.1.15,2013-04-14 19:24:00,
2013-04-14 13:34:00,53.7,23.7,29.40,WNW,302,10.0,14.0,31,0.00,,,0.00,Wunderground v.1.15,2013-04-14 19:34:00,
2013-04-14 13:39:00,54.4,24.4,29.41,ENE,61,9.0,9.0,31,0.00,,,0.00,Wunderground v.1.15,2013-04-14 19:39:00,
2013-04-14 13:44:00,55.1,24.2,29.41,NW,323,9.0,10.0,30,0.00,,,0.00,Wunderground v.1.15,2013-04-14 19:44:00,
2013-04-14 13:49:00,55.1,24.2,29.40,NW,326,10.0,10.0,30,0.00,,,0.00,Wunderground v.1.15,2013-04-14 19:49:00,
2013-04-14 13:54:00,55.1,23.4,29.41,NNW,343,10.0,10.0,29,0.00,,,0.00,Wunderground v.1.15,2013-04-14 19:54:00,
2013-04-14 13:59:00,55.0,23.3,29.41,NNW,333,9.0,9.0,29,0.00,,,0.00,Wunderground v.1.15,2013-04-14 19:59:00,
2013-04-14 14:09:00,53.8,23.8,29.41,NNW,331,9.0,9.0,31,0.00,,,0.00,Wunderground v.1.15,2013-04-14 20:09:00,
2013-04-14 14:19:00,54.1,23.3,29.42,WNW,294,11.0,11.0,30,0.00,,,0.00,Wunderground v.1.15,2013-04-14 20:19:00,
2013-04-14 14:24:00,54.4,22.8,29.42,North,355,12.0,14.0,29,0.00,,,0.00,Wunderground v.1.15,2013-04-14 20:24:00,
2013-04-14 14:29:00,54.8,23.9,29.41,WNW,302,10.0,10.0,30,0.00,,,0.00,Wunderground v.1.15,2013-04-14 20:29:00,
2013-04-14 14:39:00,54.5,22.9,29.41,NNW,329,10.0,10.0,29,0.00,,,0.00,Wunderground v.1.15,2013-04-14 20:39:00,
2013-04-14 14:44:00,54.1,23.3,29.43,North,355,9.0,10.0,30,0.00,,,0.00,Wunderground v.1.15,2013-04-14 20:44:00,
2013-04-14 14:49:00,53.9,23.1,29.42,NW,319,9.0,9.0,30,0.00,,,0.00,Wunderground v.1.15,2013-04-14 20:49:00,
2013-04-14 14:54:00,54.1,23.3,29.43,NNW,333,9.0,10.0,30,0.00,,,0.00,Wunderground v.1.15,2013-04-14 20:54:00,
2013-04-14 14:59:00,53.9,23.1,29.42,NNW,327,9.0,9.0,30,0.00,,,0.00,Wunderground v.1.15,2013-04-14 20:59:00,
2013-04-14 15:09:00,54.1,23.3,29.42,NW,318,9.0,14.0,30,0.00,,,0.00,Wunderground v.1.15,2013-04-14 21:09:00,
2013-04-14 15:14:00,54.8,24.7,29.41,WNW,295,8.0,14.0,31,0.00,,,0.00,Wunderground v.1.15,2013-04-14 21:14:00,
2013-04-14 15:19:00,54.9,24.0,29.42,NNE,31,7.0,7.0,30,0.00,,,0.00,Wunderground v.1.15,2013-04-14 21:19:00,
2013-04-14 15:24:00,54.8,23.9,29.42,NNW,339,7.0,9.0,30,0.00,,,0.00,Wunderground v.1.15,2013-04-14 21:24:00,
2013-04-14 15:29:00,54.8,23.1,29.42,NNW,330,9.0,9.0,29,0.00,,,0.00,Wunderground v.1.15,2013-04-14 21:29:00,
2013-04-14 15:39:00,54.5,24.4,29.41,NW,317,8.0,8.0,31,0.00,,,0.00,Wunderground v.1.15,2013-04-14 21:39:00,
2013-04-14 15:44:00,55.1,24.2,29.41,WNW,293,6.0,8.0,30,0.00,,,0.00,Wunderground v.1.15,2013-04-14 21:44:00,
2013-04-14 15:49:00,55.3,24.4,29.40,WNW,286,7.0,7.0,30,0.00,,,0.00,Wunderground v.1.15,2013-04-14 21:49:00,
2013-04-14 15:59:00,55.9,23.2,29.41,NNE,16,9.0,9.0,28,0.00,,,0.00,Wunderground v.1.15,2013-04-14 21:59:00,
2013-04-14 16:09:00,55.0,24.1,29.41,NW,323,6.0,6.0,30,0.00,,,0.00,Wunderground v.1.15,2013-04-14 22:09:00,
2013-04-14 16:14:00,55.8,24.8,29.40,WNW,290,7.0,7.0,30,0.00,,,0.00,Wunderground v.1.15,2013-04-14 22:14:00,
2013-04-14 16:19:00,56.3,23.6,29.41,NNW,329,9.0,9.0,28,0.00,,,0.00,Wunderground v.1.15,2013-04-14 22:19:00,
2013-04-14 16:24:00,56.2,24.3,29.41,NW,305,10.0,18.0,29,0.00,,,0.00,Wunderground v.1.15,2013-04-14 22:24:00,
2013-04-14 16:29:00,56.2,23.5,29.41,NNW,335,9.0,10.0,28,0.00,,,0.00,Wunderground v.1.15,2013-04-14 22:29:00,
2013-04-14 16:39:00,56.5,23.7,29.40,NW,314,8.0,8.0,28,0.00,,,0.00,Wunderground v.1.15,2013-04-14 22:39:00,
2013-04-14 16:44:00,56.7,23.9,29.41,WNW,300,8.0,9.0,28,0.00,,,0.00,Wunderground v.1.15,2013-04-14 22:44:00,
2013-04-14 16:49:00,56.5,23.7,29.40,NNW,336,9.0,9.0,28,0.00,,,0.00,Wunderground v.1.15,2013-04-14 22:49:00,
2013-04-14 16:59:00,56.4,23.7,29.41,NW,316,8.0,16.0,28,0.00,,,0.00,Wunderground v.1.15,2013-04-14 22:59:00,
2013-04-14 17:09:00,55.9,23.2,29.40,NW,311,10.0,10.0,28,0.00,,,0.00,Wunderground v.1.15,2013-04-14 23:09:00,
2013-04-14 17:19:00,55.8,23.1,29.40,West,268,8.0,8.0,28,0.00,,,0.00,Wunderground v.1.15,2013-04-14 23:19:00,
2013-04-14 17:24:00,55.7,23.1,29.41,NW,324,8.0,8.0,28,0.00,,,0.00,Wunderground v.1.15,2013-04-14 23:24:00,
2013-04-14 17:34:00,56.0,23.3,29.40,WNW,298,8.0,10.0,28,0.00,,,0.00,Wunderground v.1.15,2013-04-14 23:34:00,
2013-04-14 17:39:00,56.2,23.5,29.41,NW,318,7.0,7.0,28,0.00,,,0.00,Wunderground v.1.15,2013-04-14 23:39:00,
2013-04-14 17:44:00,56.1,22.5,29.41,North,355,7.0,7.0,27,0.00,,,0.00,Wunderground v.1.15,2013-04-14 23:44:00,
2013-04-14 17:54:00,55.8,22.3,29.41,NW,319,9.0,9.0,27,0.00,,,0.00,Wunderground v.1.15,2013-04-14 23:54:00,
2013-04-14 17:59:00,55.8,22.3,29.41,NNW,330,8.0,9.0,27,0.00,,,0.00,Wunderground v.1.15,2013-04-14 23:59:00,
2013-04-14 18:09:00,55.7,22.2,29.42,NW,318,8.0,8.0,27,0.00,,,0.00,Wunderground v.1.15,2013-04-15 00:09:00,
2013-04-14 18:14:00,55.5,22.0,29.42,NNW,345,8.0,15.0,27,0.00,,,0.00,Wunderground v.1.15,2013-04-15 00:14:00,
2013-04-14 18:19:00,55.3,22.7,29.42,NNW,329,7.0,7.0,28,0.00,,,0.00,Wunderground v.1.15,2013-04-15 00:19:00,
2013-04-14 18:24:00,54.9,22.4,29.42,NW,304,6.0,7.0,28,0.00,,,0.00,Wunderground v.1.15,2013-04-15 00:24:00,
2013-04-14 18:29:00,54.8,23.1,29.41,NW,322,6.0,8.0,29,0.00,,,0.00,Wunderground v.1.15,2013-04-15 00:29:00,
2013-04-14 18:39:00,54.9,23.2,29.41,North,355,7.0,7.0,29,0.00,,,0.00,Wunderground v.1.15,2013-04-15 00:39:00,
2013-04-14 18:44:00,54.9,23.2,29.41,NW,325,8.0,16.0,29,0.00,,,0.00,Wunderground v.1.15,2013-04-15 00:44:00,
2013-04-14 18:49:00,54.8,23.1,29.42,WNW,288,8.0,8.0,29,0.00,,,0.00,Wunderground v.1.15,2013-04-15 00:49:00,
2013-04-14 18:54:00,54.7,23.0,29.41,West,273,7.0,11.0,29,0.00,,,0.00,Wunderground v.1.15,2013-04-15 00:54:00,
2013-04-14 18:59:00,54.6,23.7,29.41,NNW,346,7.0,9.0,30,0.00,,,0.00,Wunderground v.1.15,2013-04-15 00:59:00,
2013-04-14 19:09:00,54.2,23.4,29.41,NW,310,6.0,11.0,30,0.00,,,0.00,Wunderground v.1.15,2013-04-15 01:09:00,
2013-04-14 19:14:00,54.1,23.3,29.42,North,355,7.0,11.0,30,0.00,,,0.00,Wunderground v.1.15,2013-04-15 01:14:00,
2013-04-14 19:19:00,53.9,23.1,29.42,NNW,334,7.0,7.0,30,0.00,,,0.00,Wunderground v.1.15,2013-04-15 01:19:00,
2013-04-14 19:24:00,53.6,22.9,29.42,NNW,329,6.0,7.0,30,0.00,,,0.00,Wunderground v.1.15,2013-04-15 01:24:00,
2013-04-14 19:29:00,53.4,23.5,29.42,North,355,6.0,6.0,31,0.00,,,0.00,Wunderground v.1.15,2013-04-15 01:29:00,
2013-04-14 19:39:00,52.7,23.6,29.42,WNW,299,4.0,5.0,32,0.00,,,0.00,Wunderground v.1.15,2013-04-15 01:39:00,
2013-04-14 19:49:00,52.2,23.2,29.43,NNW,340,4.0,4.0,32,0.00,,,0.00,Wunderground v.1.15,2013-04-15 01:49:00,
2013-04-14 19:54:00,52.1,23.1,29.43,NW,318,4.0,7.0,32,0.00,,,0.00,Wunderground v.1.15,2013-04-15 01:54:00,
2013-04-14 19:59:00,51.7,23.5,29.43,NNW,334,4.0,5.0,33,0.00,,,0.00,Wunderground v.1.15,2013-04-15 01:59:00,
2013-04-14 20:09:00,49.6,25.0,29.44,WNW,300,1.0,1.0,38,0.00,,,0.00,Wunderground v.1.15,2013-04-15 02:09:00,
2013-04-14 20:14:00,48.5,24.6,29.44,WNW,294,0.0,1.0,39,0.00,,,0.00,Wunderground v.1.15,2013-04-15 02:14:00,
2013-04-14 20:19:00,47.9,25.3,29.44,WNW,288,0.0,0.0,41,0.00,,,0.00,Wunderground v.1.15,2013-04-15 02:19:00,
2013-04-14 20:24:00,47.0,25.6,29.44,WNW,288,0.0,0.0,43,0.00,,,0.00,Wunderground v.1.15,2013-04-15 02:24:00,
2013-04-14 20:29:00,46.5,25.7,29.45,WNW,288,0.0,0.0,44,0.00,,,0.00,Wunderground v.1.15,2013-04-15 02:29:00,
2013-04-14 20:39:00,44.8,26.3,29.45,WNW,288,0.0,0.0,48,0.00,,,0.00,Wunderground v.1.15,2013-04-15 02:39:00,
2013-04-14 20:44:00,43.8,27.3,29.45,WNW,288,0.0,0.0,52,0.00,,,0.00,Wunderground v.1.15,2013-04-15 02:44:00,
2013-04-14 20:49:00,43.3,27.3,29.45,WNW,288,0.0,0.0,53,0.00,,,0.00,Wunderground v.1.15,2013-04-15 02:49:00,
2013-04-14 20:59:00,42.2,27.2,29.45,WNW,288,0.0,0.0,55,0.00,,,0.00,Wunderground v.1.15,2013-04-15 02:59:00,
2013-04-14 21:09:00,41.3,25.9,29.46,WNW,288,0.0,0.0,54,0.00,,,0.00,Wunderground v.1.15,2013-04-15 03:09:00,
2013-04-14 21:14:00,41.0,26.1,29.46,WNW,288,0.0,0.0,55,0.00,,,0.00,Wunderground v.1.15,2013-04-15 03:14:00,
2013-04-14 21:19:00,40.8,26.3,29.46,WNW,288,0.0,0.0,56,0.00,,,0.00,Wunderground v.1.15,2013-04-15 03:19:00,
2013-04-14 21:24:00,40.4,26.4,29.46,WNW,288,0.0,0.0,57,0.00,,,0.00,Wunderground v.1.15,2013-04-15 03:24:00,
2013-04-14 21:29:00,40.1,26.5,29.47,WNW,288,0.0,0.0,58,0.00,,,0.00,Wunderground v.1.15,2013-04-15 03:29:00,
2013-04-14 21:39:00,39.6,26.8,29.47,NE,44,0.0,0.0,60,0.00,,,0.00,Wunderground v.1.15,2013-04-15 03:39:00,
2013-04-14 21:44:00,39.4,26.2,29.47,NE,44,0.0,0.0,59,0.00,,,0.00,Wunderground v.1.15,2013-04-15 03:44:00,
2013-04-14 21:49:00,39.1,26.0,29.47,NE,44,0.0,0.0,59,0.00,,,0.00,Wunderground v.1.15,2013-04-15 03:49:00,
2013-04-14 21:54:00,38.8,26.5,29.47,NE,44,0.0,0.0,61,0.00,,,0.00,Wunderground v.1.15,2013-04-15 03:54:00,
2013-04-14 21:59:00,38.4,26.1,29.47,NE,44,0.0,0.0,61,0.00,,,0.00,Wunderground v.1.15,2013-04-15 03:59:00,
2013-04-14 22:04:00,38.4,26.5,29.48,NE,44,0.0,0.0,62,0.00,,,0.00,Wunderground v.1.15,2013-04-15 04:04:00,
2013-04-14 22:09:00,38.3,26.0,29.48,NE,44,0.0,0.0,61,0.00,,,0.00,Wunderground v.1.15,2013-04-15 04:09:00,
2013-04-14 22:14:00,38.1,25.8,29.48,NE,44,0.0,0.0,61,0.00,,,0.00,Wunderground v.1.15,2013-04-15 04:14:00,
2013-04-14 22:19:00,38.0,26.1,29.48,NE,44,0.0,0.0,62,0.00,,,0.00,Wunderground v.1.15,2013-04-15 04:19:00,
2013-04-14 22:24:00,37.8,25.9,29.48,NE,44,0.0,0.0,62,0.00,,,0.00,Wunderground v.1.15,2013-04-15 04:24:00,
2013-04-14 22:29:00,37.7,25.8,29.48,NE,44,0.0,0.0,62,0.00,,,0.00,Wunderground v.1.15,2013-04-15 04:29:00,
2013-04-14 22:39:00,37.6,25.7,29.49,NE,44,0.0,0.0,62,0.00,,,0.00,Wunderground v.1.15,2013-04-15 04:39:00,
2013-04-14 22:44:00,37.7,25.8,29.49,SW,230,0.0,3.0,62,0.00,,,0.00,Wunderground v.1.15,2013-04-15 04:44:00,
2013-04-14 22:49:00,37.8,25.9,29.49,ESE,105,1.0,1.0,62,0.00,,,0.00,Wunderground v.1.15,2013-04-15 04:49:00,
2013-04-14 22:54:00,37.7,25.8,29.49,ESE,123,1.0,1.0,62,0.00,,,0.00,Wunderground v.1.15,2013-04-15 04:54:00,
2013-04-14 22:59:00,37.7,26.2,29.49,SW,224,0.0,0.0,63,0.00,,,0.00,Wunderground v.1.15,2013-04-15 04:59:00,
2013-04-14 23:09:00,39.4,26.2,29.49,NE,41,1.0,2.0,59,0.00,,,0.00,Wunderground v.1.15,2013-04-15 05:09:00,
2013-04-14 23:14:00,43.4,25.5,29.48,WSW,251,3.0,3.0,49,0.00,,,0.00,Wunderground v.1.15,2013-04-15 05:14:00,
2013-04-14 23:19:00,43.6,26.6,29.49,WNW,294,3.0,3.0,51,0.00,,,0.00,Wunderground v.1.15,2013-04-15 05:19:00,
2013-04-14 23:24:00,42.5,26.1,29.49,WSW,253,1.0,3.0,52,0.00,,,0.00,Wunderground v.1.15,2013-04-15 05:24:00,
2013-04-14 23:29:00,42.0,26.1,29.49,SW,223,1.0,1.0,53,0.00,,,0.00,Wunderground v.1.15,2013-04-15 05:29:00,
2013-04-14 23:39:00,44.3,24.8,29.49,NNE,26,1.0,1.0,46,0.00,,,0.00,Wunderground v.1.15,2013-04-15 05:39:00,
2013-04-14 23:44:00,45.9,24.6,29.49,NNW,340,2.0,2.0,43,0.00,,,0.00,Wunderground v.1.15,2013-04-15 05:44:00,
2013-04-14 23:49:00,47.1,24.0,29.49,NNE,27,2.0,2.0,40,0.00,,,0.00,Wunderground v.1.15,2013-04-15 05:49:00,
2013-04-14 23:54:00,47.3,24.8,29.49,West,278,1.0,2.0,41,0.00,,,0.00,Wunderground v.1.15,2013-04-15 05:54:00,
2013-04-14 23:59:00,46.6,24.7,29.49,ENE,63,0.0,0.0,42,0.00,,,0.00,Wunderground v.1.15,2013-04-15 05:59:00,